#timestamp,LO_Frequency,Hit,StdDev 
1565906415.2,286047002.6,N
1565906435.1,286047007.2,N
1565906436.0,286047007.2,N
1565906455.8,286047009.6,N
1565906475.6,286047015.3,Y
1565906495.5,286047010.7,P
1565906515.3,286047000.8,N
1565906535.2,286047002.4,N
1565906555.9,286047004.4,N
1565906575.7,286047006.9,N
1565906595.6,286047008.0,N
1565906615.4,286047006.9,N
1565906635.2,286047001.7,N
1565906655.1,286047001.5,N
1565906656.0,286047001.5,N
1565906675.8,286047003.7,N
1565906695.7,286047007.5,N
1565906715.5,286047001.9,N
1565906735.3,286047004.0,N
1565906755.2,286047003.5,N
1565906775.0,286047001.6,N
1565906805.9,286047002.1,E
1565906815.9,286047000.0,N
1565906835.7,286047000.7,P
1565906855.5,286047000.5,N
1565906875.4,286047000.2,N
1565906895.2,286047001.1,Y
1565906915.1,286046999.0,P
1565906916.0,286046999.0,N
1565906935.8,286046998.7,N
1565906955.6,286046996.9,Y
1565906975.5,286047000.7,P
1565906995.3,286047001.4,N
1565907015.2,286047000.4,N
1565907035.0,286047002.3,N
1565907035.9,286047002.3,N
1565907055.8,286047004.3,Y
1565907075.6,286047004.6,P
1565907095.4,286047002.9,N
1565907115.3,286047004.9,P
1565907135.1,286047005.7,Y
1565907155.9,286047002.9,P
1565907175.7,286047002.3,P
1565907195.5,286047001.0,N
1565907215.4,286046998.5,N
1565907235.2,286047002.4,N
1565907255.0,286047000.1,N
1565907255.9,286047000.1,N
1565907275.8,286047004.6,N
1565907295.6,286047012.0,Y
1565907315.5,286047008.5,P
1565907335.3,286047012.3,P
1565907355.1,286047007.7,N
1565907375.9,286047008.2,N
1565907395.7,286047005.8,N
1565907415.5,286047001.9,N
1565907435.4,286047005.8,N
1565907455.2,286047010.2,Y
1565907475.1,286047003.6,P
1565907476.0,286047003.6,N
1565907495.8,286047002.5,N
1565907515.6,286047002.1,N
1565907535.5,286047001.5,N
1565907555.3,286047004.3,N
1565907575.1,286047007.4,Y
1565907595.9,286047002.2,P
1565907615.7,286047003.6,P
1565907635.6,286047005.8,P
1565907655.4,286047006.8,Y
1565907675.2,286047003.6,P
1565907695.1,286047006.3,P
1565907696.0,286047006.3,P
1565907715.8,286047006.6,Y
1565907735.7,286046999.7,P
1565907755.5,286047002.1,N
1565907775.3,286047003.5,N
1565907795.2,286047003.7,N
1565907815.0,286047002.1,N
1565907815.9,286047002.1,N
1565907835.7,286046998.3,N
1565907855.6,286046999.2,N
1565907875.4,286046999.9,N
1565907895.3,286046999.6,N
1565907915.1,286046997.1,N
1565907935.8,286047002.9,N
1565907955.7,286047009.3,Y
1565907975.5,286047012.3,P
1565907995.4,286047009.0,N
1565908015.2,286047007.7,N
1565908035.0,286047008.0,N
1565908035.9,286047008.0,N
1565908055.8,286047010.0,Y
1565908075.6,286047004.3,P
1565908095.5,286047002.3,N
1565908115.3,286047001.9,N
1565908135.1,286046998.6,N
1565908155.9,286046995.0,N
1565908175.7,286046998.9,N
1565908195.5,286047002.3,N
1565908215.4,286047000.8,N
1565908235.2,286046996.6,N
1565908255.1,286046996.5,N
1565908256.0,286046996.5,N
1565908275.8,286046999.2,N
1565908295.6,286046998.8,N
1565908315.5,286046997.6,N
1565908335.3,286046997.3,N
1565908355.2,286046999.2,N
1565908375.9,286046999.4,N
1565908395.7,286046998.3,N
1565908415.6,286046996.9,N
1565908435.4,286046993.6,N
1565908455.2,286046996.9,N
1565908475.1,286046999.2,N
1565908476.0,286046999.2,N
1565908495.8,286047001.2,N
1565908515.7,286047002.0,N
1565908535.5,286046998.2,N
1565908555.3,286047004.4,N
1565908575.2,286047005.6,N
1565908595.0,286047003.2,N
1565908595.9,286047003.2,N
1565908615.8,286047004.3,N
1565908635.6,286047005.7,N
1565908655.4,286047002.9,N
1565908675.3,286047007.1,N
1565908695.1,286047007.0,N
1565908715.8,286047006.8,N
1565908735.7,286047003.1,N
1565908755.5,286047004.9,N
1565908775.3,286047003.3,N
1565908795.2,286047009.0,N
1565908815.0,286047005.1,N
1565908815.9,286047005.1,N
1565908835.8,286047005.8,N
1565908855.6,286047003.7,N
1565908875.4,286047004.3,N
1565908895.3,286047001.2,N
1565908915.1,286047000.5,N
1565908935.9,286047004.4,N
1565908955.7,286047002.4,N
1565908975.5,286047002.4,N
1565908995.4,286047003.9,N
1565909015.2,286047002.9,N
1565909035.1,286047005.9,N
1565909036.0,286047005.9,N
1565909055.8,286047007.2,Y
1565909075.6,286047002.4,P
1565909095.5,286047000.6,N
1565909115.3,286047002.8,N
1565909135.2,286047005.1,Y
1565909155.9,286047008.5,P
1565909175.7,286047008.2,N
1565909195.6,286047004.8,N
1565909215.4,286047006.7,N
1565909235.2,286047007.6,Y
1565909255.1,286047000.0,P
1565909256.0,286047000.0,N
1565909275.8,286047000.6,N
1565909295.7,286046996.5,N
1565909315.5,286046997.9,N
1565909335.3,286046997.4,N
1565909355.2,286046997.9,N
1565909375.0,286046996.6,N
1565909375.9,286046996.6,N
1565909395.8,286047000.4,N
1565909415.6,286046999.9,N
1565909435.4,286047002.0,N
1565909455.3,286047004.3,N
1565909475.1,286047004.1,N
1565909495.8,286047005.3,N
1565909515.7,286047007.4,N
1565909535.5,286047006.5,N
1565909555.4,286047013.3,Y
1565909575.2,286047016.7,P
1565909595.0,286047016.6,N
1565909595.9,286047016.6,N
1565909615.8,286047016.0,N
1565909635.6,286047017.8,N
1565909655.4,286047030.0,Y
1565909675.3,286047015.7,P
1565909695.1,286047014.7,P
1565909715.9,286047009.3,P
1565909735.7,286047009.8,Y
1565909755.5,286046997.8,P
1565909775.4,286046995.2,N
1565909795.2,286046996.5,N
1565909815.1,286046997.7,N
1565909816.0,286046997.7,N
1565909835.8,286046994.5,N
1565909855.6,286046994.1,N
1565909875.5,286046994.3,N
1565909895.3,286046996.2,N
1565909915.1,286046999.3,N
1565909935.9,286047001.1,N
1565909955.7,286046998.2,N
1565909975.6,286047005.5,N
1565909995.4,286047006.3,N
